Regional Weather Roundup
Issued by NWS Goodland, KS

Home | Current Version | Previous Version | Text Only | Print | Product List | Glossary Off
Versions: 1 2 3 4 5 6 7 8 9 10 11 12 13 14 15 16 17 18 19 20 21 22 23 24 25 26 27 28 29 30 31 32 33 34 35 36 37 38 39 40 41 42 43 44 45 46 47 48 49 50

000
ASUS43 KGLD 190908
RWRGLD

GOODLAND FORECAST AREA HOURLY WEATHER ROUNDUP
NATIONAL WEATHER SERVICE GOODLAND KS
200 AM MST FRI DEC 19 2014

...OFFICIAL OBSERVATIONS...

CITY           SKY/WX    TMP DP  RH WIND       PRES   REMARKS
GOODLAND KS    PTCLDY    24  20  84 W7        30.11S
HILL CITY KS   CLOUDY    33  29  85 CALM      30.17S
IMPERIAL NEB   CLEAR     18  14  84 W5        30.10S
MCCOOK NEB     FOG       23  22  96 S6        30.14S VSB 1/4
AKRON CO       PTCLDY    24  17  74 SW9       30.07S
BURLINGTON CO  CLEAR     22  18  85 W8        30.10S
LIMON CO       CLEAR     15  12  88 N8        30.09S
$$

...UNOFFICIAL OBSERVATIONS...

CITY           SKY/WX    TMP DP  RH WIND       PRES   REMARKS
GOVE KS          N/A     30  32 100 MISG        N/A
SHARON SPRINGS   N/A     32  30  94 CALM        N/A
TRIBUNE KS     MOCLDY    30  30 100 W6        30.13
KIT CARSON CO    N/A     22  19  89 MISG        N/A
YUMA CO          N/A     19  14  81 CALM        N/A
$$



USA.gov is the U.S. government's official web portal to all federal, state and local government web resources and services.